DO5RS-5 Weather Reports


time (UTC)temp
C
wind
direction
speed
KPH
gust
KPH
rain 1hr
cm
rain 24hr
cm
rain mn
cm
humidity
%
barometer
mb
20260831192905 18 0.0 0.0 0.00 0.00 0.00 85 1019.8
20260831191906 18 0.0 0.0 0.00 0.00 0.00 85 1019.8
20260831190905 18 0.0 0.0 0.00 0.00 0.00 84 1019.8
20260831185906 18 0.0 0.0 0.00 0.00 0.00 84 1019.7
20260831184907 18 0.0 0.0 0.00 0.00 0.00 84 1019.6
20260831183904 18 0.0 0.0 0.00 0.00 0.00 84 1019.4
20260831182904 18 0.0 0.0 0.00 0.00 0.00 84 1018.8
20260831181905 18 0.0 0.0 0.00 0.00 0.00 84 1018.9
20260831180905 18 0.0 0.0 0.00 0.00 0.00 82 1018.7
20260831175905 18 0.0 0.0 0.00 0.00 0.00 82 1018.6
20260831174904 18 0.0 0.0 0.00 0.00 0.00 81 1018.5
20260831173905 18 0.0 0.0 0.00 0.00 0.00 81 1018.4
20260831172905 19 0.0 0.0 0.00 0.00 0.00 81 1018.4
20260831171906 18 0.0 0.0 0.00 0.00 0.00 80 1018.4
20260831170907 18 0.0 0.0 0.00 0.00 0.00 80 1018.3
20260831165905 19 0.0 0.0 0.00 0.00 0.00 79 1018.0
20260831164905 19 0.0 0.0 0.00 0.00 0.00 79 1017.7
20260831163906 18 0.0 0.0 0.00 0.00 0.00 79 1017.9
20260831162907 18 0.0 0.0 0.00 0.00 0.00 78 1018.0
20260831161907 20 0.0 0.0 0.00 0.00 0.00 77 1017.9
20260831160911 20 0.0 0.0 0.00 0.00 0.00 75 1017.1
20260831154904 20 0.0 0.0 0.00 0.00 0.00 72 1016.2
20260831153908 20 0.0 0.0 0.00 0.00 0.00 70 1016.1
20260831151904 21 0.0 0.0 0.00 0.00 0.00 67 1016.5
20260831150904 21 0.0 0.0 0.00 0.00 0.00 67 1016.4
20260831145906 22 0.0 0.0 0.00 0.00 0.00 60 1016.3
20260831144906 22 0.0 0.0 0.00 0.00 0.00 59 1016.1
20260831143906 23 0.0 0.0 0.00 0.00 0.00 59 1016.0
20260831142910 23 0.0 0.0 0.00 0.00 0.00 58 1015.9
20260831140910 22 0.0 0.0 0.00 0.00 0.00 57 1015.7
20260831134909 24 0.0 0.0 0.00 0.00 0.00 50 1015.3
20260831132906 25 0.0 0.0 0.00 0.00 0.00 49 1015.5
20260831131904 23 0.0 0.0 0.00 0.00 0.00 50 1015.6
20260831130904 22 0.0 0.0 0.00 0.00 0.00 51 1016.1
20260831125904 23 0.0 0.0 0.00 0.00 0.00 51 1015.8
20260831124905 23 0.0 0.0 0.00 0.00 0.00 52 1015.9
20260831123907 22 0.0 0.0 0.00 0.00 0.00 56 1016.2
20260831122910 22 0.0 0.0 0.00 0.00 0.00 59 1016.0
20260831120915 21 0.0 0.0 0.00 0.00 0.00 64 1016.3
20260831115905 21 0.0 0.0 0.00 0.00 0.00 61 1016.3
20260831114905 22 0.0 0.0 0.00 0.00 0.00 63 1016.1
20260831113907 21 0.0 0.0 0.00 0.00 0.00 65 1016.3
20260831112906 21 0.0 0.0 0.00 0.00 0.00 69 1016.5
20260831111904 21 0.0 0.0 0.00 0.00 0.00 72 1016.5
20260831110909 20 0.0 0.0 0.00 0.00 0.00 74 1016.6
20260831104904 21 0.0 0.0 0.00 0.00 0.00 68 1016.6
20260831103905 21 0.0 0.0 0.00 0.00 0.00 69 1016.4
20260831102906 21 0.0 0.0 0.00 0.00 0.00 67 1016.5
20260831101904 20 0.0 0.0 0.00 0.00 0.00 70 1016.5
20260831100904 20 0.0 0.0 0.00 0.00 0.00 70 1016.8
20260831095904 20 0.0 0.0 0.00 0.00 0.00 69 1016.7
20260831094904 20 0.0 0.0 0.00 0.00 0.00 70 1016.9
20260831093905 20 0.0 0.0 0.00 0.00 0.00 70 1017.0
20260831092910 20 0.0 0.0 0.00 0.00 0.00 73 1016.8
20260831090909 20 0.0 0.0 0.00 0.00 0.00 73 1016.8
20260831083905 19 0.0 0.0 0.00 0.00 0.00 78 1016.8
20260831082905 19 0.0 0.0 0.00 0.00 0.00 82 1016.6
20260831081904 19 0.0 0.0 0.00 0.00 0.00 84 1016.7
20260831080908 19 0.0 0.0 0.00 0.00 0.00 86 1016.7
20260831074904 18 0.0 0.0 0.00 0.00 0.00 88 1016.7
20260831073909 18 0.0 0.0 0.00 0.00 0.00 89 1016.8
20260831070906 18 0.0 0.0 0.00 0.00 0.00 95 1016.7
20260831065904 18 0.0 0.0 0.00 0.00 0.00 95 1016.7
20260831064904 18 0.0 0.0 0.00 0.00 0.00 97 1016.6
20260831063909 18 0.0 0.0 0.00 0.00 0.00 97 1016.6
20260831061905 18 0.0 0.0 0.00 0.00 0.00 94 1016.6
20260831060906 18 0.0 0.0 0.00 0.00 0.00 93 1016.4
20260831055906 18 0.0 0.0 0.00 0.00 0.00 94 1016.3
20260831054904 18 0.0 0.0 0.00 0.00 0.00 94 1016.3
20260831053904 18 0.0 0.0 0.00 0.00 0.00 94 1016.2
20260831052904 18 0.0 0.0 0.00 0.00 0.00 92 1016.0
20260831051905 18 0.0 0.0 0.00 0.00 0.00 92 1016.1
20260831050905 18 0.0 0.0 0.00 0.00 0.00 91 1015.9
20260831045906 18 0.0 0.0 0.00 0.00 0.00 92 1015.9
20260831044906 18 0.0 0.0 0.00 0.00 0.00 91 1016.0
20260831043905 18 0.0 0.0 0.00 0.00 0.00 91 1016.0
20260831042905 18 0.0 0.0 0.00 0.00 0.00 90 1015.7
20260831041905 18 0.0 0.0 0.00 0.00 0.00 88 1015.6
20260831040905 18 0.0 0.0 0.00 0.00 0.00 88 1015.7
20260831035907 18 0.0 0.0 0.00 0.00 0.00 89 1015.6
20260831034906 18 0.0 0.0 0.00 0.00 0.00 89 1015.5
20260831033907 18 0.0 0.0 0.00 0.00 0.00 89 1015.6
20260831032906 18 0.0 0.0 0.00 0.00 0.00 89 1015.7
20260831031908 18 0.0 0.0 0.00 0.00 0.00 89 1015.6
20260831025908 18 0.0 0.0 0.00 0.00 0.00 89 1015.7
20260831023904 18 0.0 0.0 0.00 0.00 0.00 87 1015.9
20260831022905 18 0.0 0.0 0.00 0.00 0.00 86 1015.7
20260831021904 18 0.0 0.0 0.00 0.00 0.00 86 1015.9
20260831020905 19 0.0 0.0 0.00 0.00 0.00 85 1016.0
20260831015904 19 0.0 0.0 0.00 0.00 0.00 84 1015.8
20260831014904 19 0.0 0.0 0.00 0.00 0.00 83 1015.8
20260831013904 19 0.0 0.0 0.00 0.00 0.00 82 1015.5
20260831012905 19 0.0 0.0 0.00 0.00 0.00 82 1015.3
20260831011904 19 0.0 0.0 0.00 0.00 0.00 82 1015.4
20260831010904 19 0.0 0.0 0.00 0.00 0.00 80 1015.8
20260831005904 19 0.0 0.0 0.00 0.00 0.00 79 1015.9
20260831004905 19 0.0 0.0 0.00 0.00 0.00 78 1015.9
20260831003904 19 0.0 0.0 0.00 0.00 0.00 77 1016.2
20260831002904 19 0.0 0.0 0.00 0.00 0.00 75 1016.1
20260831001905 20 0.0 0.0 0.00 0.00 0.00 73 1015.8
20260831000904 20 0.0 0.0 0.00 0.00 0.00 72 1016.1
20260830235904 20 0.0 0.0 0.00 0.00 0.00 70 1015.8
20260830234909 20 0.0 0.0 0.00 0.00 0.00 70 1015.8
20260830231905 20 0.0 0.0 0.00 0.00 0.00 69 1015.1
20260830230905 20 0.0 0.0 0.00 0.00 0.00 69 1015.5
20260830225906 20 0.0 0.0 0.00 0.00 0.00 68 1015.6
20260830224906 20 0.0 0.0 0.00 0.00 0.00 68 1015.6
20260830223904 20 0.0 0.0 0.00 0.00 0.00 68 1015.8
20260830222904 20 0.0 0.0 0.00 0.00 0.00 68 1015.9
20260830221905 20 0.0 0.0 0.00 0.00 0.00 67 1015.9
20260830220904 20 0.0 0.0 0.00 0.00 0.00 68 1016.1
20260830215907 20 0.0 0.0 0.00 0.00 0.00 68 1016.0
20260830214907 20 0.0 0.0 0.00 0.00 0.00 68 1016.0
20260830213905 20 0.0 0.0 0.00 0.00 0.00 67 1016.1
20260830212908 20 0.0 0.0 0.00 0.00 0.00 67 1016.2
20260830211908 20 0.0 0.0 0.00 0.00 0.00 67 1016.2
20260830210904 20 0.0 0.0 0.00 0.00 0.00 67 1016.2
20260830205904 20 0.0 0.0 0.00 0.00 0.00 67 1016.2
20260830204905 20 0.0 0.0 0.00 0.00 0.00 66 1016.3
20260830203904 21 0.0 0.0 0.00 0.00 0.00 66 1016.2
20260830202905 21 0.0 0.0 0.00 0.00 0.00 65 1016.3
20260830201904 21 0.0 0.0 0.00 0.00 0.00 65 1016.3
20260830200908 21 0.0 0.0 0.00 0.00 0.00 64 1016.4
20260830193909 21 0.0 0.0 0.00 0.00 0.00 62 1016.3